Regional Weather Roundup
Issued by NWS

Home | Current Version | Previous Version | Text Only | Print | Product List | Glossary On
Versions: 1 2 3 4 5 6 7 8 9 10 11 12 13 14 15 16 17 18 19 20 21 22 23 24 25 26 27 28 29 30 31 32 33 34 35 36 37 38 39 40 41 42 43 44 45 46 47 48 49 50
000
ASUS43 KTOP 230459
RWRKS

WEATHER ROUNDUP FOR KANSAS
NATIONAL WEATHER SERVICE GOODLAND KS
1200 AM CDT SAT MAY 23 2015

NOTE:  "FAIR" INDICATES FEW OR NO CLOUDS BELOW 12,000 FEET WITH NO
SIGNIFICANT WEATHER AND/OR OBSTRUCTIONS TO VISIBILITY.

KSZ001>006-013>018-027>032-041>047-230600-
NORTHWEST KANSAS

CITY           SKY/WX    TMP DP  RH WIND       PRES   REMARKS
GOODLAND       FOG       53  53 100 SE20G28   30.04R VSB 1/2
HAYS           CLOUDY    55  48  76 SE15      30.12S
HILL CITY      CLOUDY    55  53  93 S13       30.11S
RUSSELL        CLOUDY    55  54  96 SE13      30.12S
$$

KSZ061>065-074>080-084>089-230600-
SOUTHWEST KANSAS

CITY           SKY/WX    TMP DP  RH WIND       PRES   REMARKS
DODGE CITY     CLOUDY    55  53  93 S17       30.11R FOG
ELKHART          N/A     58  51  78 S21         N/A
GARDEN CITY    CLOUDY    56  54  93 SE17      30.07R
GREAT BEND     CLOUDY    55  52  88 SE12      30.14R
LIBERAL        MOCLDY    57  52  82 S16       30.06S
$$

KSZ066>073-081>083-090>101-230600-
SOUTHEAST KANSAS

CITY           SKY/WX    TMP DP  RH WIND       PRES   REMARKS
CHANUTE        CLOUDY    60  52  74 E6        30.18F
COFFEYVILLE    CLOUDY    61  54  77 S3        30.18F
HUTCHINSON     CLOUDY    55  52  89 SE10      30.16S FOG
NEWTON         CLOUDY    54  48  82 SE8       30.18F
PARSONS        LGT RAIN  61  56  83 CALM      30.20S
WICHITA INTL   CLOUDY    55  52  89 SE10      30.16S
WICHITA JABRA  CLOUDY    54  52  93 SE8       30.16F
WICHITA MCCONL CLOUDY    55  52  88 SE8       30.16S
WINFIELD       CLOUDY    55  54  96 SE7       30.17F FOG
$$

KSZ007>012-019>026-033>040-048>060-102>105-230600-
NORTHEAST KANSAS

CITY           SKY/WX    TMP DP  RH WIND       PRES   REMARKS
CONCORDIA      CLOUDY    57  49  74 SE12      30.16S
EMPORIA        CLOUDY    56  53  90 E6        30.17F
LAWRENCE       CLOUDY    60  52  74 SE7       30.20F
MANHATTAN      CLOUDY    59  50  72 SE3       30.18S
OLATHE IND     CLOUDY    60  53  77 SE10      30.21F
OLATHE EXE     CLOUDY    60  53  77 SE9       30.20F
SALINA         CLOUDY    56  52  86 SE12      30.17S FOG
TOPEKA BILLARD CLOUDY    61  52  72 E7        30.19F
TOPEKA FORBES  CLOUDY    60  51  72 E7        30.19F
$$



USA.gov is the U.S. government's official web portal to all federal, state and local government web resources and services.